Terug naar catalogus

ICEYE-X48

ActiefWetenschapSSO
NORAD 63253·PAYLOAD·🇺🇸 United States

Gelanceerd Mar 15, 2025 vanaf Vandenberg Space Force Base

Loading…

Volgende Passages (komende 24 uur)

TLE

VersSource: Space-Track

Epoch: Sep 14, 2026, 16:28 UTC

1 63253U 25052AV  26257.68651687  .00001979  00000-0  17059-3 0  9993
2 63253  97.6721 148.4707 0000949 281.2959  78.8157 14.98446781 82077

Volg ICEYE-X48 in realtime met AllMySat

Download on the App Store